This is the latest recevied weather packets stored in our database for station/object iz1wiy-3. If no packets are shown the sender has not sent any weather packets the latest 1 day(s).
| Time | Temp. | Humidity | Pressure | Rain* | Wind** | Luminosity | Snow |
|---|---|---|---|---|---|---|---|
| 1778056623 | 17.78° C | 87% | 1009.8 hPa | 0.25 mm | 3.58 m/s, 211° | - | - |
| 1778056563 | 17.78° C | 87% | 1009.8 hPa | 0.25 mm | 4.02 m/s, 211° | - | - |
| 1778056503 | 17.78° C | 87% | 1009.7 hPa | 0.25 mm | 4.02 m/s, 210° | - | - |
| 1778056443 | 17.78° C | 87% | 1009.7 hPa | 0.25 mm | 4.02 m/s, 208° | - | - |
| 1778056383 | 17.78° C | 87% | 1009.8 hPa | 0.25 mm | 4.02 m/s, 209° | - | - |
| 1778056323 | 17.78° C | 87% | 1009.8 hPa | 0.25 mm | 4.02 m/s, 206° | - | - |
| 1778056263 | 17.78° C | 87% | 1009.8 hPa | 0.25 mm | 4.02 m/s, 206° | - | - |
| 1778056203 | 17.78° C | 87% | 1009.7 hPa | 0.25 mm | 4.02 m/s, 205° | - | - |
| 1778056143 | 17.78° C | 87% | 1009.8 hPa | 0.25 mm | 4.02 m/s, 205° | - | - |
| 1778056083 | 17.78° C | 86% | 1009.7 hPa | 0.25 mm | 4.02 m/s, 205° | - | - |
| 1778056023 | 17.78° C | 86% | 1009.7 hPa | 0.25 mm | 4.02 m/s, 207° | - | - |
| 1778055963 | 17.78° C | 86% | 1009.7 hPa | 0.25 mm | 4.02 m/s, 207° | - | - |
| 1778055903 | 17.78° C | 86% | 1009.6 hPa | 0.25 mm | 3.58 m/s, 208° | - | - |
| 1778055843 | 17.78° C | 86% | 1009.6 hPa | 0.25 mm | 3.58 m/s, 211° | - | - |
| 1778055783 | 17.78° C | 87% | 1009.6 hPa | 0.25 mm | 3.58 m/s, 211° | - | - |
| 1778055723 | 17.78° C | 87% | 1009.6 hPa | 0.25 mm | 3.58 m/s, 213° | - | - |
| 1778055663 | 17.78° C | 87% | 1009.5 hPa | 0.25 mm | 3.58 m/s, 213° | - | - |
| 1778055603 | 17.78° C | 87% | 1009.4 hPa | 0.25 mm | 3.13 m/s, 213° | - | - |
| 1778055483 | 17.78° C | 87% | 1009.4 hPa | 0 mm | 3.13 m/s, 213° | - | - |
| 1778055424 | 17.78° C | 88% | 1009.5 hPa | 0 mm | 3.13 m/s, 212° | - | - |
| 1778055363 | 17.78° C | 88% | 1009.3 hPa | 0 mm | 3.13 m/s, 209° | - | - |
| 1778055303 | 17.78° C | 87% | 1009.4 hPa | 0 mm | 3.13 m/s, 209° | - | - |
| 1778055243 | 17.78° C | 87% | 1009.4 hPa | 0 mm | 3.13 m/s, 207° | - | - |
| 1778055183 | 17.78° C | 86% | 1009.5 hPa | 0 mm | 3.13 m/s, 209° | - | - |
| 1778055123 | 17.78° C | 86% | 1009.4 hPa | 0 mm | 2.68 m/s, 208° | - | - |
* Rain latest hour (hover to see other rain measurements)
** Current wind speed in m/s (hover to see current wind gust speed)